Time,TemperatureF,DewpointF,PressureIn,WindDirection,WindDirectionDegrees,WindSpeedMPH,WindSpeedGustMPH,Humidity,HourlyPrecipIn,Conditions,Clouds,dailyrainin,SoftwareType,DateUTC
2013-01-02 00:03:00,10.0,8.0,-100.00,SSE,165,6.0,8.0,92,-99.99,,,-99.99,,2013-01-02 05:03:00,
2013-01-02 00:12:00,10.0,8.0,-100.00,SSE,165,5.0,8.0,92,-99.99,,,-99.99,,2013-01-02 05:12:00,
2013-01-02 00:22:00,11.0,9.0,-100.00,SSE,155,6.0,7.0,92,-99.99,,,-99.99,,2013-01-02 05:22:00,
2013-01-02 00:33:00,12.0,10.0,-100.00,SSE,155,6.0,7.0,92,-99.99,,,-99.99,,2013-01-02 05:33:00,
2013-01-02 00:42:00,12.0,11.0,-100.00,SSE,155,7.0,7.0,92,-99.99,,,-99.99,,2013-01-02 05:42:00,
2013-01-02 00:52:00,12.0,11.0,-100.00,SSE,160,6.0,7.0,93,-99.99,,,-99.99,,2013-01-02 05:52:00,
2013-01-02 01:02:00,11.0,9.0,-100.00,SSE,160,4.0,7.0,93,-99.99,,,-99.99,,2013-01-02 06:02:00,
2013-01-02 01:12:00,10.0,9.0,-100.00,SSE,165,6.0,7.0,93,-99.99,,,-99.99,,2013-01-02 06:12:00,
2013-01-02 01:22:00,11.0,10.0,-100.00,SSW,195,6.0,7.0,93,-99.99,,,-99.99,,2013-01-02 06:22:00,
2013-01-02 01:32:00,12.0,10.0,-100.00,South,185,6.0,8.0,93,-99.99,,,-99.99,,2013-01-02 06:32:00,
2013-01-02 01:42:00,12.0,11.0,-100.00,South,180,6.0,7.0,93,-99.99,,,-99.99,,2013-01-02 06:42:00,
2013-01-02 01:52:00,11.0,10.0,-100.00,South,180,5.0,7.0,93,-99.99,,,-99.99,,2013-01-02 06:52:00,
2013-01-02 02:02:00,11.0,9.0,-100.00,South,180,6.0,7.0,93,-99.99,,,-99.99,,2013-01-02 07:02:00,
2013-01-02 02:12:00,11.0,9.0,-100.00,South,185,6.0,7.0,93,-99.99,,,-99.99,,2013-01-02 07:12:00,
2013-01-02 02:22:00,11.0,9.0,-100.00,South,185,6.0,7.0,93,-99.99,,,-99.99,,2013-01-02 07:22:00,
2013-01-02 02:32:00,10.0,9.0,-100.00,South,185,4.0,7.0,93,-99.99,,,-99.99,,2013-01-02 07:32:00,
2013-01-02 02:42:00,9.0,8.0,-100.00,SSW,195,6.0,7.0,93,-99.99,,,-99.99,,2013-01-02 07:42:00,
2013-01-02 02:52:00,10.0,9.0,-100.00,South,190,7.0,9.0,93,-99.99,,,-99.99,,2013-01-02 07:52:00,
2013-01-02 03:02:00,12.0,11.0,-100.00,SSW,210,7.0,10.0,93,-99.99,,,-99.99,,2013-01-02 08:02:00,
2013-01-02 03:12:00,12.0,10.0,-100.00,SW,215,7.0,8.0,93,-99.99,,,-99.99,,2013-01-02 08:12:00,
2013-01-02 03:22:00,12.0,11.0,-100.00,SW,215,8.0,9.0,92,-99.99,,,-99.99,,2013-01-02 08:22:00,
2013-01-02 03:32:00,13.0,12.0,-100.00,SW,215,8.0,10.0,92,-99.99,,,-99.99,,2013-01-02 08:32:00,
2013-01-02 03:42:00,12.0,11.0,-100.00,SW,215,7.0,10.0,92,-99.99,,,-99.99,,2013-01-02 08:42:00,
2013-01-02 03:52:00,12.0,11.0,-100.00,SW,215,9.0,11.0,92,-99.99,,,-99.99,,2013-01-02 08:52:00,
2013-01-02 04:02:00,12.0,11.0,-100.00,SW,215,8.0,10.0,92,-99.99,,,-99.99,,2013-01-02 09:02:00,
2013-01-02 04:12:00,12.0,11.0,-100.00,SW,220,7.0,10.0,92,-99.99,,,-99.99,,2013-01-02 09:12:00,
2013-01-02 04:22:00,12.0,10.0,-100.00,SW,215,9.0,11.0,92,-99.99,,,-99.99,,2013-01-02 09:22:00,
2013-01-02 04:32:00,11.0,10.0,-100.00,SW,215,9.0,14.0,92,-99.99,,,-99.99,,2013-01-02 09:32:00,
2013-01-02 04:43:00,11.0,9.0,-100.00,SW,215,9.0,11.0,92,-99.99,,,-99.99,,2013-01-02 09:43:00,
2013-01-02 04:52:00,11.0,9.0,-100.00,SW,215,8.0,11.0,92,-99.99,,,-99.99,,2013-01-02 09:52:00,
2013-01-02 05:02:00,11.0,9.0,-100.00,SW,215,7.0,10.0,92,-99.99,,,-99.99,,2013-01-02 10:02:00,
2013-01-02 05:12:00,10.0,8.0,-100.00,SSW,210,9.0,10.0,92,-99.99,,,-99.99,,2013-01-02 10:12:00,
2013-01-02 05:22:00,11.0,9.0,-100.00,SSW,210,7.0,10.0,93,-99.99,,,-99.99,,2013-01-02 10:22:00,
2013-01-02 05:32:00,11.0,9.0,-100.00,SW,215,7.0,9.0,93,-99.99,,,-99.99,,2013-01-02 10:32:00,
2013-01-02 05:42:00,10.0,8.0,-100.00,SSW,210,9.0,9.0,93,-99.99,,,-99.99,,2013-01-02 10:42:00,
2013-01-02 05:52:00,10.0,9.0,-100.00,SSW,210,9.0,10.0,93,-99.99,,,-99.99,,2013-01-02 10:52:00,
2013-01-02 06:02:00,10.0,9.0,-100.00,SSW,210,9.0,10.0,93,-99.99,,,-99.99,,2013-01-02 11:02:00,
2013-01-02 06:12:00,10.0,9.0,-100.00,SSW,210,9.0,11.0,92,-99.99,,,-99.99,,2013-01-02 11:12:00,
2013-01-02 06:22:00,11.0,9.0,-100.00,SW,215,9.0,11.0,92,-99.99,,,-99.99,,2013-01-02 11:22:00,
2013-01-02 06:33:00,10.0,9.0,-100.00,SSW,210,9.0,11.0,92,-99.99,,,-99.99,,2013-01-02 11:33:00,
2013-01-02 06:42:00,10.0,9.0,-100.00,SW,215,9.0,11.0,92,-99.99,,,-99.99,,2013-01-02 11:42:00,
2013-01-02 06:52:00,10.0,9.0,-100.00,SW,215,9.0,11.0,92,-99.99,,,-99.99,,2013-01-02 11:52:00,
2013-01-02 07:03:00,11.0,9.0,-100.00,SW,220,7.0,12.0,92,-99.99,,,-99.99,,2013-01-02 12:03:00,
2013-01-02 07:12:00,11.0,9.0,-100.00,SW,235,5.0,9.0,92,-99.99,,,-99.99,,2013-01-02 12:12:00,
2013-01-02 07:22:00,11.0,9.0,-100.00,SW,235,5.0,9.0,92,-99.99,,,-99.99,,2013-01-02 12:22:00,
2013-01-02 07:33:00,11.0,9.0,-100.00,SW,225,6.0,9.0,93,-99.99,,,-99.99,,2013-01-02 12:33:00,
2013-01-02 07:42:00,8.0,7.0,-100.00,SSW,210,7.0,7.0,92,-99.99,,,-99.99,,2013-01-02 12:42:00,
2013-01-02 07:53:00,8.0,6.0,-100.00,SSW,210,7.0,9.0,93,-99.99,,,-99.99,,2013-01-02 12:53:00,
2013-01-02 08:03:00,8.0,7.0,-100.00,SSW,210,6.0,7.0,93,-99.99,,,-99.99,,2013-01-02 13:03:00,
2013-01-02 08:12:00,7.0,6.0,-100.00,SSW,200,6.0,6.0,93,-99.99,,,-99.99,,2013-01-02 13:12:00,
2013-01-02 08:22:00,8.0,7.0,-100.00,SSW,210,6.0,7.0,93,-99.99,,,-99.99,,2013-01-02 13:22:00,
2013-01-02 08:33:00,8.0,6.0,-100.00,SSW,200,6.0,7.0,93,-99.99,,,-99.99,,2013-01-02 13:33:00,
2013-01-02 08:43:00,8.0,6.0,-100.00,SSW,205,6.0,7.0,93,-99.99,,,-99.99,,2013-01-02 13:43:00,
2013-01-02 08:52:00,8.0,6.0,-100.00,SSW,210,6.0,7.0,93,-99.99,,,-99.99,,2013-01-02 13:52:00,
2013-01-02 09:02:00,7.0,6.0,-100.00,SSW,195,2.0,6.0,93,-99.99,,,-99.99,,2013-01-02 14:02:00,
2013-01-02 09:12:00,6.0,5.0,-100.00,SSW,200,3.0,5.0,93,-99.99,,,-99.99,,2013-01-02 14:12:00,
2013-01-02 09:22:00,5.0,4.0,-100.00,South,190,3.0,4.0,93,-99.99,,,-99.99,,2013-01-02 14:22:00,
2013-01-02 09:33:00,5.0,4.0,-100.00,South,190,3.0,4.0,93,-99.99,,,-99.99,,2013-01-02 14:33:00,
2013-01-02 09:43:00,9.0,7.0,-100.00,SSW,195,6.0,7.0,93,-99.99,,,-99.99,,2013-01-02 14:43:00,
2013-01-02 09:53:00,10.0,8.0,-100.00,SSW,200,6.0,7.0,93,-99.99,,,-99.99,,2013-01-02 14:53:00,
2013-01-02 10:03:00,10.0,8.0,-100.00,SSW,205,7.0,9.0,93,-99.99,,,-99.99,,2013-01-02 15:03:00,
2013-01-02 10:12:00,10.0,9.0,-100.00,SSW,200,6.0,10.0,93,-99.99,,,-99.99,,2013-01-02 15:12:00,
2013-01-02 10:22:00,10.0,9.0,-100.00,SSW,200,7.0,9.0,92,-99.99,,,-99.99,,2013-01-02 15:22:00,
2013-01-02 10:33:00,11.0,9.0,-100.00,SSW,205,8.0,9.0,91,-99.99,,,-99.99,,2013-01-02 15:33:00,
2013-01-02 10:43:00,12.0,10.0,-100.00,SSW,210,7.0,9.0,90,-99.99,,,-99.99,,2013-01-02 15:43:00,
2013-01-02 10:53:00,12.0,10.0,-100.00,SSW,210,7.0,9.0,90,-99.99,,,-99.99,,2013-01-02 15:53:00,
2013-01-02 11:03:00,14.0,11.0,-100.00,SSW,210,9.0,10.0,86,-99.99,,,-99.99,,2013-01-02 16:03:00,
2013-01-02 11:13:00,15.0,11.0,-100.00,SSW,205,7.0,10.0,84,-99.99,,,-99.99,,2013-01-02 16:13:00,
2013-01-02 11:22:00,16.0,12.0,-100.00,SSW,200,8.0,10.0,83,-99.99,,,-99.99,,2013-01-02 16:22:00,
2013-01-02 11:33:00,16.0,12.0,-100.00,SSW,205,9.0,11.0,81,-99.99,,,-99.99,,2013-01-02 16:33:00,
2013-01-02 11:43:00,17.0,12.0,-100.00,SSW,200,7.0,10.0,80,-99.99,,,-99.99,,2013-01-02 16:43:00,
2013-01-02 11:53:00,17.0,12.0,-100.00,SSW,205,7.0,10.0,80,-99.99,,,-99.99,,2013-01-02 16:53:00,
2013-01-02 12:03:00,18.0,12.0,-100.00,SSW,210,8.0,9.0,78,-99.99,,,-99.99,,2013-01-02 17:03:00,
2013-01-02 12:13:00,19.0,13.0,-100.00,SSW,205,7.0,10.0,77,-99.99,,,-99.99,,2013-01-02 17:13:00,
2013-01-02 12:23:00,19.0,13.0,-100.00,SW,215,9.0,12.0,77,-99.99,,,-99.99,,2013-01-02 17:23:00,
2013-01-02 12:33:00,19.0,13.0,-100.00,SSW,205,10.0,12.0,77,-99.99,,,-99.99,,2013-01-02 17:33:00,
2013-01-02 12:43:00,19.0,13.0,-100.00,SSW,210,11.0,12.0,77,-99.99,,,-99.99,,2013-01-02 17:43:00,
2013-01-02 12:53:00,19.0,13.0,-100.00,SW,215,8.0,11.0,77,-99.99,,,-99.99,,2013-01-02 17:53:00,
2013-01-02 13:03:00,19.0,13.0,-100.00,SW,215,7.0,12.0,77,-99.99,,,-99.99,,2013-01-02 18:03:00,
2013-01-02 13:13:00,20.0,14.0,-100.00,SSW,210,7.0,11.0,76,-99.99,,,-99.99,,2013-01-02 18:13:00,
2013-01-02 13:23:00,20.0,14.0,-100.00,SSW,205,7.0,10.0,75,-99.99,,,-99.99,,2013-01-02 18:23:00,
2013-01-02 13:33:00,21.0,14.0,-100.00,SSW,200,9.0,11.0,74,-99.99,,,-99.99,,2013-01-02 18:33:00,
2013-01-02 13:43:00,22.0,15.0,-100.00,SSW,200,8.0,12.0,73,-99.99,,,-99.99,,2013-01-02 18:43:00,
2013-01-02 13:53:00,24.0,16.0,-100.00,South,175,5.0,9.0,71,-99.99,,,-99.99,,2013-01-02 18:53:00,
2013-01-02 14:03:00,24.0,15.0,-100.00,SSW,205,6.0,9.0,69,-99.99,,,-99.99,,2013-01-02 19:03:00,
2013-01-02 14:12:00,22.0,14.0,-100.00,SW,215,9.0,12.0,71,-99.99,,,-99.99,,2013-01-02 19:12:00,
2013-01-02 14:23:00,22.0,14.0,-100.00,SW,230,9.0,12.0,72,-99.99,,,-99.99,,2013-01-02 19:23:00,
2013-01-02 14:33:00,22.0,15.0,-100.00,SW,225,9.0,11.0,72,-99.99,,,-99.99,,2013-01-02 19:33:00,
2013-01-02 14:43:00,22.0,15.0,-100.00,SW,225,9.0,11.0,72,-99.99,,,-99.99,,2013-01-02 19:43:00,
2013-01-02 14:52:00,22.0,14.0,-100.00,SW,220,6.0,9.0,72,-99.99,,,-99.99,,2013-01-02 19:52:00,
2013-01-02 15:03:00,21.0,14.0,-100.00,SW,230,7.0,9.0,72,-99.99,,,-99.99,,2013-01-02 20:03:00,
2013-01-02 15:12:00,21.0,13.0,-100.00,SW,220,8.0,11.0,73,-99.99,,,-99.99,,2013-01-02 20:12:00,
2013-01-02 15:23:00,21.0,14.0,-100.00,SSW,205,6.0,10.0,74,-99.99,,,-99.99,,2013-01-02 20:23:00,
2013-01-02 15:33:00,21.0,14.0,-100.00,SSW,210,6.0,8.0,74,-99.99,,,-99.99,,2013-01-02 20:33:00,
2013-01-02 15:42:00,21.0,14.0,-100.00,SW,215,6.0,7.0,74,-99.99,,,-99.99,,2013-01-02 20:42:00,
2013-01-02 15:53:00,22.0,15.0,-100.00,SSW,205,6.0,6.0,73,-99.99,,,-99.99,,2013-01-02 20:53:00,
2013-01-02 16:03:00,21.0,14.0,-100.00,SSW,210,6.0,6.0,73,-99.99,,,-99.99,,2013-01-02 21:03:00,
2013-01-02 16:13:00,22.0,15.0,-100.00,SSW,200,4.0,6.0,72,-99.99,,,-99.99,,2013-01-02 21:13:00,
2013-01-02 16:22:00,22.0,14.0,-100.00,SSE,165,5.0,6.0,70,-99.99,,,-99.99,,2013-01-02 21:22:00,
2013-01-02 16:33:00,21.0,13.0,-100.00,SSE,150,7.0,9.0,71,-99.99,,,-99.99,,2013-01-02 21:33:00,
2013-01-02 16:43:00,21.0,14.0,-100.00,SE,145,7.0,9.0,72,-99.99,,,-99.99,,2013-01-02 21:43:00,
2013-01-02 16:52:00,21.0,14.0,-100.00,SE,140,7.0,10.0,74,-99.99,,,-99.99,,2013-01-02 21:52:00,
2013-01-02 17:03:00,21.0,15.0,-100.00,SSE,150,8.0,12.0,75,-99.99,,,-99.99,,2013-01-02 22:03:00,
2013-01-02 17:12:00,21.0,15.0,-100.00,SSE,150,8.0,10.0,75,-99.99,,,-99.99,,2013-01-02 22:12:00,
2013-01-02 17:22:00,21.0,15.0,-100.00,SSE,155,8.0,11.0,76,-99.99,,,-99.99,,2013-01-02 22:22:00,
2013-01-02 17:32:00,21.0,15.0,-100.00,SSE,150,9.0,11.0,77,-99.99,,,-99.99,,2013-01-02 22:32:00,
2013-01-02 17:42:00,21.0,15.0,-100.00,SSE,160,7.0,11.0,78,-99.99,,,-99.99,,2013-01-02 22:42:00,
2013-01-02 17:52:00,21.0,15.0,-100.00,SSE,160,7.0,11.0,78,-99.99,,,-99.99,,2013-01-02 22:52:00,
2013-01-02 18:03:00,21.0,15.0,-100.00,SSE,165,9.0,12.0,78,-99.99,,,-99.99,,2013-01-02 23:03:00,
2013-01-02 18:13:00,20.0,15.0,-100.00,SSE,165,9.0,12.0,78,-99.99,,,-99.99,,2013-01-02 23:13:00,
2013-01-02 18:23:00,20.0,15.0,-100.00,SSE,160,9.0,12.0,78,-99.99,,,-99.99,,2013-01-02 23:23:00,
2013-01-02 18:33:00,20.0,15.0,-100.00,South,175,11.0,14.0,78,-99.99,,,-99.99,,2013-01-02 23:33:00,
2013-01-02 18:42:00,20.0,15.0,-100.00,South,170,12.0,17.0,78,-99.99,,,-99.99,,2013-01-02 23:42:00,
2013-01-02 18:52:00,20.0,14.0,-100.00,SSE,165,11.0,14.0,78,-99.99,,,-99.99,,2013-01-02 23:52:00,
2013-01-02 19:02:00,20.0,14.0,-100.00,SSE,165,9.0,13.0,78,-99.99,,,-99.99,,2013-01-03 00:02:00,
2013-01-02 19:12:00,20.0,14.0,-100.00,South,170,8.0,11.0,78,-99.99,,,-99.99,,2013-01-03 00:12:00,
2013-01-02 19:22:00,20.0,14.0,-100.00,South,170,9.0,11.0,79,-99.99,,,-99.99,,2013-01-03 00:22:00,
2013-01-02 19:38:00,20.0,14.0,-100.00,South,170,9.0,12.0,79,-99.99,,,-99.99,,2013-01-03 00:38:00,
2013-01-02 19:52:00,19.0,14.0,-100.00,SSE,165,7.0,9.0,79,-99.99,,,-99.99,,2013-01-03 00:52:00,
2013-01-02 20:02:00,19.0,14.0,-100.00,South,170,7.0,11.0,79,-99.99,,,-99.99,,2013-01-03 01:02:00,
2013-01-02 20:12:00,19.0,14.0,-100.00,South,180,9.0,11.0,79,-99.99,,,-99.99,,2013-01-03 01:12:00,
2013-01-02 20:22:00,19.0,14.0,-100.00,South,175,7.0,9.0,79,-99.99,,,-99.99,,2013-01-03 01:22:00,
2013-01-02 20:32:00,19.0,14.0,-100.00,South,185,6.0,7.0,79,-99.99,,,-99.99,,2013-01-03 01:32:00,
2013-01-02 20:42:00,19.0,14.0,-100.00,SSE,165,7.0,9.0,80,-99.99,,,-99.99,,2013-01-03 01:42:00,
2013-01-02 20:52:00,19.0,14.0,-100.00,South,170,5.0,7.0,80,-99.99,,,-99.99,,2013-01-03 01:52:00,
2013-01-02 21:02:00,19.0,14.0,-100.00,South,185,6.0,7.0,80,-99.99,,,-99.99,,2013-01-03 02:02:00,
2013-01-02 21:12:00,19.0,14.0,-100.00,SSE,165,6.0,8.0,80,-99.99,,,-99.99,,2013-01-03 02:12:00,
2013-01-02 21:22:00,19.0,14.0,-100.00,SSE,165,7.0,9.0,80,-99.99,,,-99.99,,2013-01-03 02:22:00,
2013-01-02 21:33:00,19.0,14.0,-100.00,South,170,7.0,9.0,80,-99.99,,,-99.99,,2013-01-03 02:33:00,
2013-01-02 21:42:00,19.0,14.0,-100.00,South,170,7.0,9.0,80,-99.99,,,-99.99,,2013-01-03 02:42:00,
2013-01-02 21:52:00,19.0,14.0,-100.00,South,170,7.0,9.0,80,-99.99,,,-99.99,,2013-01-03 02:52:00,
2013-01-02 22:02:00,19.0,14.0,-100.00,South,175,7.0,11.0,80,-99.99,,,-99.99,,2013-01-03 03:02:00,
2013-01-02 22:12:00,19.0,14.0,-100.00,South,175,7.0,12.0,80,-99.99,,,-99.99,,2013-01-03 03:12:00,
2013-01-02 22:22:00,19.0,13.0,-100.00,SSE,165,7.0,10.0,79,-99.99,,,-99.99,,2013-01-03 03:22:00,
2013-01-02 22:46:00,19.0,12.0,-100.00,South,175,8.0,11.0,76,-99.99,,,-99.99,,2013-01-03 03:46:00,
2013-01-02 22:52:00,18.0,11.0,-100.00,South,190,6.0,10.0,73,-99.99,,,-99.99,,2013-01-03 03:52:00,
2013-01-02 23:02:00,18.0,10.0,-100.00,South,185,8.0,11.0,70,-99.99,,,-99.99,,2013-01-03 04:02:00,
2013-01-02 23:12:00,18.0,9.0,-100.00,SSW,195,6.0,9.0,68,-99.99,,,-99.99,,2013-01-03 04:12:00,
2013-01-02 23:22:00,17.0,8.0,-100.00,SSW,195,6.0,7.0,67,-99.99,,,-99.99,,2013-01-03 04:22:00,
2013-01-02 23:32:00,17.0,8.0,-100.00,SSW,195,6.0,7.0,67,-99.99,,,-99.99,,2013-01-03 04:32:00,
2013-01-02 23:42:00,14.0,5.0,-100.00,SSE,165,6.0,7.0,69,-99.99,,,-99.99,,2013-01-03 04:42:00,
2013-01-02 23:52:00,12.0,4.0,-100.00,SSE,150,4.0,7.0,70,-99.99,,,-99.99,,2013-01-03 04:52:00,